This is the latest recevied weather packets stored in our database for station/object KE0FIN. If no packets are shown the sender has not sent any weather packets the latest 10 day(s).
| Time | Temp. | Humidity | Pressure | Rain* | Wind** | Luminosity | Snow |
|---|---|---|---|---|---|---|---|
| 1777778064 | 11.67° C | 54% | 1069.5 hPa | 0 mm | - | 0 W/m² | - |
| 1777777760 | 12.22° C | 54% | 1069.6 hPa | 0 mm | - | 0 W/m² | - |
| 1777777457 | 12.22° C | 52% | 1069.4 hPa | 0 mm | - | 0 W/m² | - |
| 1777777153 | 12.22° C | 51% | 1069.2 hPa | 0 mm | - | 0 W/m² | - |
| 1777776851 | 12.22° C | 50% | 1069.5 hPa | 0 mm | - | 0 W/m² | - |
| 1777776548 | 12.78° C | 49% | 1069.4 hPa | 0 mm | - | 0 W/m² | - |
| 1777776244 | 12.78° C | 49% | 1069.3 hPa | 0 mm | - | 0 W/m² | - |
| 1777775941 | 12.78° C | 47% | 1069.5 hPa | 0 mm | - | 0 W/m² | - |
| 1777775639 | 13.33° C | 45% | 1069.2 hPa | 0 mm | - | 0 W/m² | - |
| 1777775336 | 13.33° C | 44% | 1069.3 hPa | 0 mm | - | 0 W/m² | - |
| 1777775030 | 13.33° C | 45% | 1069.3 hPa | 0 mm | - | 0 W/m² | - |
| 1777774726 | 13.89° C | 44% | 1069.2 hPa | 0 mm | - | 0 W/m² | - |
| 1777774422 | 13.89° C | 43% | 1069 hPa | 0 mm | - | 0 W/m² | - |
| 1777774120 | 13.89° C | 43% | 1069.2 hPa | 0 mm | - | 0 W/m² | - |
| 1777773818 | 13.89° C | 42% | 1069.2 hPa | 0 mm | - | 0 W/m² | - |
| 1777773514 | 14.44° C | 42% | 1069.2 hPa | 0 mm | - | 0 W/m² | - |
| 1777773211 | 14.44° C | 42% | 1069 hPa | 0 mm | - | 0 W/m² | - |
| 1777772907 | 15° C | 40% | 1069.2 hPa | 0 mm | - | 0 W/m² | - |
| 1777772605 | 15.56° C | 38% | 1069 hPa | 0 mm | - | 0 W/m² | - |
| 1777772302 | 15.56° C | 38% | 1069 hPa | 0 mm | - | 0 W/m² | - |
| 1777771999 | 16.11° C | 37% | 1068.8 hPa | 0 mm | - | 0 W/m² | - |
| 1777771696 | 16.67° C | 36% | 1069 hPa | 0 mm | - | 1 W/m² | - |
| 1777771394 | 17.22° C | 34% | 1069.2 hPa | 0 mm | - | 2 W/m² | - |
| 1777771090 | 17.22° C | 33% | 1069 hPa | 0 mm | - | 3 W/m² | - |
| 1777770787 | 17.78° C | 32% | 1069 hPa | 0 mm | - | 5 W/m² | - |
* Rain latest hour (hover to see other rain measurements)
** Current wind speed in m/s (hover to see current wind gust speed)